User: anonymous   Login
Location: Bonn
(50.7330°N, 7.1000°E)
Time: 10:28:59
(UTC+02:00)
Language:

Cosmos 1933 Rocket - Orbit

View from above orbital plane
View from above orbital plane
View from above satellite
View from above satellite

Ground track
Ground track

The orbit data is extracted from the following two-line orbital elements,

1 18959U 88020B   17147.51833320 +.00000075 +00000-0 +62350-5 0  9998
2 18959 082.5368 290.1240 0016304 200.4758 159.5806 14.83337118577512
Epoch (UTC): 27 May 2017 12:26:23
Eccentricity: 0.0016304
inclination: 82.5368°
perigee height: 607 km
apogee height: 630 km
right ascension of ascending node: 290.1240°
argument of perigee: 200.4758°
revolutions per day: 14.83337118
mean anomaly at epoch: 159.5806°
orbit number at epoch: 57751

The dashed part of the orbit path shows where the satellite is in the earth's shadow,  

DLR